5 kleines Gehege Affenhaus Messungen

Zurück zum Überblick

Zeitpunkt Temperatur Luftfeuchte
08.12.2019 05:55:45 17,0 C 48,0%
08.12.2019 05:48:43 17,0 C 48,0%
08.12.2019 05:41:41 17,1 C 48,0%
08.12.2019 05:34:39 17,1 C 48,0%
08.12.2019 05:27:36 17,1 C 48,0%
08.12.2019 05:20:34 17,2 C 48,0%
08.12.2019 05:13:34 17,3 C 48,0%
08.12.2019 05:06:32 17,3 C 48,0%
08.12.2019 04:59:30 17,3 C 48,0%
08.12.2019 04:52:28 17,4 C 48,0%
08.12.2019 04:45:26 17,5 C 48,0%
08.12.2019 04:38:24 17,5 C 48,0%
08.12.2019 04:31:22 17,6 C 48,0%
08.12.2019 04:24:19 17,7 C 48,0%
08.12.2019 04:17:18 17,8 C 48,0%
08.12.2019 04:10:17 17,8 C 48,0%
08.12.2019 04:03:17 18,0 C 48,0%
08.12.2019 03:56:14 18,0 C 48,0%
08.12.2019 03:49:13 18,2 C 49,0%
08.12.2019 03:42:12 18,3 C 49,0%
08.12.2019 03:35:12 18,3 C 49,0%
08.12.2019 03:28:10 18,4 C 49,0%
08.12.2019 03:21:07 18,4 C 49,0%
08.12.2019 03:14:06 18,4 C 49,0%
08.12.2019 03:07:05 18,3 C 49,0%
08.12.2019 03:00:04 18,1 C 49,0%
08.12.2019 02:53:03 17,9 C 49,0%
08.12.2019 02:46:00 17,8 C 49,0%
08.12.2019 02:38:59 17,5 C 49,0%
08.12.2019 02:31:58 17,4 C 49,0%
08.12.2019 02:24:56 17,2 C 49,0%
08.12.2019 02:17:56 17,0 C 49,0%
08.12.2019 02:10:53 17,0 C 49,0%
08.12.2019 02:03:50 17,0 C 49,0%
08.12.2019 01:56:50 17,0 C 49,0%
08.12.2019 01:49:49 17,1 C 49,0%
08.12.2019 01:42:47 17,1 C 49,0%
08.12.2019 01:35:46 17,1 C 49,0%
08.12.2019 01:28:42 17,2 C 49,0%
08.12.2019 01:21:41 17,2 C 49,0%
08.12.2019 01:14:38 17,2 C 49,0%
08.12.2019 01:07:37 17,3 C 49,0%
08.12.2019 01:00:34 17,3 C 49,0%
08.12.2019 00:53:34 17,3 C 49,0%
08.12.2019 00:46:31 17,4 C 49,0%
08.12.2019 00:39:31 17,4 C 49,0%
08.12.2019 00:32:29 17,4 C 49,0%
08.12.2019 00:25:27 17,5 C 49,0%
08.12.2019 00:18:27 17,5 C 49,0%
08.12.2019 00:11:23 17,5 C 49,0%
08.12.2019 00:04:21 17,6 C 49,0%